Regional Weather Roundup
Issued by NWS

Home | Current Version | Previous Version | Text Only | Print | Product List | Glossary Off
Versions: 1 2 3 4 5 6 7 8 9 10 11 12 13 14 15 16 17 18 19 20 21 22 23 24 25 26 27 28 29 30 31 32 33 34 35 36 37 38 39 40 41 42 43 44 45 46 47 48 49 50

530
ASUS43 KBIS 261110
RWRND

NORTH DAKOTA REGIONAL WEATHER ROUNDUP
NATIONAL WEATHER SERVICE BISMARCK ND
500 AM CST SUN FEB 26 2017

NOTE: "FAIR" INDICATES FEW OR NO CLOUDS BELOW 12,000 FEET WITH NO
SIGNIFICANT WEATHER AND/OR OBSTRUCTIONS TO VISIBILITY.


NDZ001>003-009>011-017-261200-
NORTHWEST NORTH DAKOTA

CITY           SKY/WX    TMP DP  RH WIND       PRES   REMARKS
WILLISTON      CLOUDY    10   8  92 CALM      29.71S
MINOT          FAIR       0  -5  79 SW8       29.73S WCI -14
MINOT AFB      CLOUDY    -6 -11  81 W6        29.73S WCI -19
$$

NDZ018>021-031>035-040>046-261200-
SOUTHWEST NORTH DAKOTA

CITY           SKY/WX    TMP DP  RH WIND       PRES   REMARKS
BISMARCK       FAIR      12   7  80 NW3       29.75S
DICKINSON      FLURRIES  14  10  84 E6        29.64S WCI   5
GARRISON         N/A      1  -3  83 N3        29.72F
HETTINGER ARPT MOCLDY     8   4  83 CALM      29.68S
$$

NDZ004>008-012>016-024-026-027-054-261200-
NORTHEAST NORTH DAKOTA

CITY           SKY/WX    TMP DP  RH WIND       PRES   REMARKS
GRAND FORKS    MOCLDY     7   1  76 NW6       29.76R WCI  -3
GRND FRKS AFB  PTCLDY     5   2  86 N5        29.76S WCI  -4
DEVILS LAKE    FAIR      -1  -3  91 NW6       29.75R WCI -13
$$

NDZ022-023-025-028>030-036>039-047>053-261200-
SOUTHEAST NORTH DAKOTA

CITY           SKY/WX    TMP DP  RH WIND       PRES   REMARKS
FARGO          CLOUDY    16  11  80 MISG      29.73R
JAMESTOWN      FLURRIES  15  11  83 N14       29.72R WCI   0
$$





USA.gov is the U.S. government's official web portal to all federal, state and local government web resources and services.